Location: Nyabau Forest Reserve
(3.2333°N, 113.1000°E)
Time: 16:43:33
(UTC+00:00)

Daily predictions for brighter satellites

Satellite Brightness Start Highest point End
(mag) Time Altitude Azimuth Time Altitude Azimuth Time Altitude Azimuth
OAO 3 Rocket 4.2 12:00:04 10° SSW 12:04:19 30° SE 12:04:36 30° SE
Ariane H10+ 1.9 12:09:42 10° W 12:13:38 74° S 12:15:09 49° ESE
Cosmos 1125 Rocket 4.1 12:09:03 10° NNW 12:14:08 58° WSW 12:19:17 10° S
BLOCK DM-SL R/B 2.9 12:10:40 10° WSW 12:14:37 27° SSW 12:14:37 27° SSW
BlueWalker 3 4.2 12:16:23 10° WNW 12:19:12 22° WSW 12:22:03 10° S
ARIANE 5 DEB (SYLDA) 3.3 12:14:16 10° W 12:20:29 61° S 12:20:37 60° S
OAO 3 Copernicus 4.3 12:19:19 10° WSW 12:24:18 72° NW 12:24:27 72° NNW
Cosmos 1536 Rocket 4.3 12:22:16 10° SSW 12:26:25 50° W 12:27:47 35° NW
Milstar 3 Cent rocket 3.8 12:20:36 10° WSW 12:28:23 88° NNW 12:34:50 40° ENE
USA 215 3.8 12:29:00 40° SE 12:29:00 40° SE 12:34:41 10° SSW
Ariane H10+ 3.9 12:28:04 10° W 12:29:10 18° W 12:29:10 18° W
Meteor 2-3 Rocket 3.7 12:25:23 10° S 12:30:20 67° SSE 12:30:20 67° SSE
SL-08 R/B 3.6 12:32:44 59° SW 12:32:44 59° SW 12:36:31 10° SSW
Cosmos 1844 Rocket 2.7 12:35:29 10° SSW 12:41:01 74° W 12:41:01 74° W
ARIANE 5 R/B 4.4 12:33:52 10° W 12:41:21 89° S 15:28:39 10° E
Cosmos 2034 Rocket 4.1 12:43:20 10° N 12:49:30 74° W 12:55:47 10° S
ARIANE 5 DEB (SYLDA) 3.5 12:48:28 10° W 12:53:27 85° S 12:53:58 78° ESE
Milstar 3 4.2 12:56:54 10° WNW 13:06:56 90° SSW 13:12:35 50° ESE
USA 234 4.4 13:24:55 36° WNW 13:24:55 36° WNW 13:28:52 10° NW
CZ-3C R/B 4.1 19:26:24 34° ENE 19:26:24 34° ENE 19:45:54 10° E
ARIANE 44LP R/B 4.3 20:09:47 73° NE 20:09:47 73° NE 20:38:08 10° E
ARIANE 5 R/B 4.1 20:30:44 23° E 20:30:44 23° E 20:33:25 10° E
Ariane 42L R/B 3.6 20:33:53 66° NE 20:33:53 66° NE 20:37:29 10° ENE
CZ-4C R/B 3.5 20:35:08 54° SW 20:35:08 54° SW 20:43:17 10° S
Cosmos 2369 4.2 20:33:29 10° S 20:39:05 58° ESE 20:44:38 10° NNE
Delta 128 4.3 20:42:01 79° E 20:42:01 79° E 20:48:17 10° ESE
Hubble Space Telescope 3.0 20:46:03 18° ENE 20:46:03 18° ENE 20:47:08 10° ENE
Cosmos 1814 Rocket 4.0 20:48:44 73° E 20:48:44 73° E 20:53:42 10° SSE
Cosmos 158 Rocket 3.9 20:55:24 72° N 20:55:57 84° ENE 21:01:16 10° SSE
Cosmos 1934 Rocket 3.8 20:57:29 10° SSW 21:03:28 67° W 21:09:29 10° N
BLOCK DM-SL R/B 4.3 20:57:26 31° W 21:05:35 73° S 21:09:58 10° E
SL-16 R/B 2.4 21:01:16 10° S 21:07:21 62° WSW 21:09:34 39° NW
Delta 202 3.7 21:07:10 52° WSW 21:08:07 61° SSW 21:14:12 10° ESE
ARIANE 5 DEB (SYLDA) 4.4 21:05:42 39° WNW 21:09:26 70° N 21:14:36 10° E
Delta 7925 Rocket 3.7 21:11:06 44° NNW 21:11:06 44° NNW 21:15:09 10° NE
Aureole 3 4.0 21:13:15 10° N 21:17:08 49° E 21:20:24 10° SSE
Cosmos 1354 Rocket 4.0 21:12:19 10° SSW 21:17:23 55° WNW 21:22:27 10° N
Meteor 1-28 Rocket 3.9 21:14:17 10° S 21:16:20 35° S 21:16:20 35° S
SWIFT 2.0 21:18:02 63° ENE 21:18:02 63° ENE 21:20:54 10° ESE
Ariane H10 3.8 21:17:39 29° SSW 21:18:22 32° S 21:24:30 10° ESE
Delta 168 3.0 21:21:53 40° SSW 21:22:57 60° SSE 21:27:25 10° ENE
Cosmos 1605 Rocket 4.0 21:18:02 10° S 21:24:24 86° W 21:30:48 10° N
ARIANE 5 DEB (SYLDA) 3.1 21:24:30 41° WNW 21:25:46 69° N 21:29:15 10° E
Cosmos 1727 Rocket 4.1 21:20:17 10° NNW 21:26:15 53° W 21:32:21 10° SSW
Cosmos 1908 Rocket 3.3 21:26:23 10° S 21:30:40 73° W 21:34:57 10° N
Cosmos 990 Rocket 4.3 21:28:07 10° SW 21:32:57 39° WNW 21:37:47 10° N
Meteor 2-16 Rocket 4.3 21:27:52 10° N 21:33:59 81° W 21:40:08 10° S
CZ-4 R/B 3.8 21:29:04 10° N 21:33:59 79° WNW 21:38:51 10° SSW
BLOCK DM-SL R/B 3.9 21:31:27 25° WSW 21:34:01 64° S 21:46:26 10° E
BLOCK DM-SL R/B 4.2 21:32:23 25° WSW 21:35:41 74° S 22:05:01 10° E
GPS 2-17 Rocket1 4.3 21:37:42 18° NNW 21:40:03 29° NNE 21:43:53 10° E
Cosmos 2237 4.5 21:35:13 10° SW 21:40:34 43° WNW 21:45:56 10° N
Gbstr 26 Del rocket 4.2 21:40:00 22° WNW 21:43:36 42° WSW 21:48:43 10° SSE
Cosmos 2278 4.1 21:38:34 10° S 21:44:11 68° ESE 21:49:46 10° NNE
FUSE 3.9 21:42:23 24° WNW 21:45:38 72° SSW 21:50:54 10° ESE
Cosmos 1484 Rocket 4.2 21:44:32 10° NNE 21:47:46 36° E 21:50:58 10° S
Cosmos 1400 Rocket 2.6 21:45:08 10° SSW 21:48:48 58° W 21:52:30 10° N
SL-8 R/B 4.3 21:44:43 10° NNW 21:49:18 53° NE 21:53:52 10° SE
Star 63D 3.9 21:45:35 18° WNW 21:49:55 83° NNE 21:52:28 10° ESE
Ariane H10+ 1.8 21:49:21 22° W 21:51:19 89° SSW 22:01:27 10° E
Cosmos 44 Rocket 3.6 21:47:14 13° NW 21:51:31 48° WSW 21:56:17 10° S
Cosmos 2360 Rocket 3.6 21:47:07 10° S 21:52:22 41° ESE 21:57:36 10° NE
Meteor 1-11 4.3 21:46:49 10° N 21:52:41 86° W 21:58:29 10° S
Cosmos 2297 Rocket 2.4 21:55:55 10° NNW 22:01:19 48° WSW 22:06:43 10° S
IGS 5A 3.2 21:59:58 10° N 22:03:52 67° WNW 22:07:48 10° SSW
CZ-3 R/B 4.5 22:03:26 10° SSW 22:06:20 11° S 22:08:37 10° SSE
Intercosmos 25 Rocket 3.7 22:03:48 10° N 22:07:29 88° E 22:13:08 10° S
Cosmos 1378 Rocket 4.0 22:04:14 10° NNW 22:08:12 38° W 22:12:14 10° SSW
Cosmos 2221 Rocket 4.2 22:04:30 10° N 22:08:56 62° E 22:13:21 10° SSE
COSMO-SKYMED 1 3.6 22:11:40 10° SSE 22:15:37 47° ENE 22:19:33 10° N
Cosmos 1300 Rocket 4.3 22:13:35 10° SSW 22:17:24 30° W 22:21:13 10° NNW
Cosmos 1025 Rocket 3.0 22:13:41 10° NNW 22:17:57 65° W 22:22:12 10° S
ATLAS 2A CENTAUR R/B 3.8 22:15:16 10° NW 22:19:21 22° NNE 22:21:37 10° ENE
Cosmos 1869 3.7 22:17:52 10° SSW 22:21:06 32° W 22:24:18 10° NNW
Hubble Space Telescope 2.5 22:21:05 10° WNW 22:23:13 15° NNW 22:25:22 10° N
MOS 1 Rocket 3.4 22:20:11 10° NNE 22:24:49 87° E 22:29:46 10° S
GP-B 3.0 22:20:46 10° N 22:25:07 81° W 22:29:30 10° S
